Regional Weather Roundup
Issued by NWS

Home | Current Version | Previous Version | Graphics & Text | Print | Product List | Glossary On
Versions: 1 2 3 4 5 6 7 8 9 10 11 12 13 14 15 16 17 18 19 20 21 22 23 24 25 26 27 28 29 30 31 32 33 34 35 36 37 38 39 40 41 42 43 44 45 46 47 48 49 50
000
ASUS45 KABQ 042201
RWRNM
NEW MEXICO REGIONAL WEATHER ROUNDUP
NATIONAL WEATHER SERVICE ALBUQUERQUE NM
400 PM MDT SAT JUL 04 2015

NOTE: "FAIR" MEANS FEW OR NO CLOUDS BELOW 12,000 FEET AGL WITH NO
       SIGNIFICANT WEATHER OR OBSTRUCTIONS TO VISION.

      THIS PRODUCT IS RELEASED AS TWO VERSIONS.  ONE VERSION NEAR
      THE TOP OF THE HOUR CONTAINING PRELIMINARY DATA FROM ALBUQUERQUE
      AND OTHER STATIONS.  A FINAL VERSION WITH ADDITIONAL DATA IS
      ISSUED ABOUT 10 MINUTES AFTER THE HOUR.

NMZ501-503-504-510>518-042300-
NORTHWEST PLATEAU/NORTHCENTRAL MOUNTAINS

CITY           SKY/WX    TMP DP  RH WIND       PRES   REMARKS
FARMINGTON     SUNNY     90  49  24 W7        30.00F
SANTA FE       CLOUDY    82  52  35 S6        30.13F
TAOS           CLOUDY    79  46  31 W12       30.17F

$$
NMZ402-403-502-505>509-042300-
WESTCENTRAL MOUNTAINS/SOUTHWEST MOUNTAINS

CITY           SKY/WX    TMP DP  RH WIND       PRES   REMARKS
GALLUP         CLOUDY    67  51  56 E14G25    30.21R THUNDER
GRANTS         LGT RAIN  63  56  80 SW12      30.20F
SILVER CITY      N/A     86  54  32 CALM      30.09S

$$
NMZ407-409-411-412-042300-
SOUTHERN DESERTS

CITY           SKY/WX    TMP DP  RH WIND       PRES   REMARKS
LORDSBURG      FAIR      90  52  27 NW9       29.99S
DEMING         MOSUNNY   90  56  31 SW7       29.99F
HOLLOMAN AFB   MOSUNNY   92  55  27 S13       29.94F
ALAMOGORDO     MOSUNNY   91  54  27 SE13G18   29.97F
T OR C         PTSUNNY   89  51  27 SE5       30.00F

$$
NMZ519>523-042300-
CENTRAL VALLEYS/CENTRAL HIGHLANDS

CITY           SKY/WX    TMP DP  RH WIND       PRES   REMARKS
ALBUQUERQUE    TSTM      80  57  45 SE20G30   30.07R
DOUBLE EAGLE   CLOUDY    70  55  60 W8        30.10S
CLINES CORNERS CLOUDY    70  55  59 NE3       30.20F
BELEN          FAIR      86  50  28 W15       30.05S
SOCORRO        NOT AVBL

$$
NMZ524>526-539-540-042300-
SOUTHCENTRAL MOUNTAINS

CITY           SKY/WX    TMP DP  RH WIND       PRES   REMARKS
RUIDOSO        NOT AVBL

$$
NMZ527>531-042300-
NORTHEAST HIGHLANDS/NORTHEAST PLAINS

CITY           SKY/WX    TMP DP  RH WIND       PRES   REMARKS
LAS VEGAS      CLOUDY    76  55  48 S10       30.17F
RATON          PTSUNNY   81  54  39 VRB6      30.11F
CLAYTON        SUNNY     92  57  30 S17G29    30.01F

$$
NMZ532>537-042300-
EASTCENTRAL PLAINS

CITY           SKY/WX    TMP DP  RH WIND       PRES   REMARKS
TUCUMCARI      MOSUNNY   93  50  23 SW13      29.97F
CANNON AFB     MOSUNNY   87  59  39 S13       30.02F
CLOVIS AIRPORT MOSUNNY   88  59  37 S14         N/A

$$
NMZ028-029-538-042300-
SOUTHEAST PLAINS

CITY           SKY/WX    TMP DP  RH WIND       PRES   REMARKS
ROSWELL        SUNNY     90  54  29 SE8G20    29.98F
ARTESIA        SUNNY     90  55  31 E13       29.98F
CARLSBAD       MOSUNNY   91  57  31 SE13G22   29.95F
HOBBS          MOSUNNY   90  57  33 SE12      30.01F


$$



USA.gov is the U.S. government's official web portal to all federal, state and local government web resources and services.